When you browse on this site, cookies collect data to enhance your experience and personalize the content and advertising you see.
Visit our Privacy Policy to learn more. By continuing to use the site, you agree to this use of cookies and data.
  • En España
  • Lista de países
  • Para 7 días
  • Temperatura del agua
  • Mapa Satelital
  • El tiempo en el mapa
  • Informadores
  • user-avatar
    Iniciar sesión

    Tiempo cada hora Dara

    Hoy, 22 Abril, Lunes

    Tiempo Temperatura Precipitaciones Viento Presión Humedad
    00:00 +7°C° 0 mm 5 mps 713 mmHg 79%
    01:00 +6°C° 0 mm 4 mps 713 mmHg 81%
    02:00 +6°C° 0 mm 4 mps 713 mmHg 83%
    03:00 +6°C° 0 mm 4 mps 713 mmHg 84%
    04:00 +6°C° 0 mm 4 mps 713 mmHg 84%
    05:00 +6°C° 0 mm 4 mps 713 mmHg 85%
    06:00 +7°C° 0.1 mm 5 mps 713 mmHg 79%
    07:00 +9°C° 0.1 mm 6 mps 714 mmHg 74%
    08:00 +10°C° 0 mm 8 mps 713 mmHg 72%
    09:00 +11°C° 0.2 mm 9 mps 714 mmHg 69%
    10:00 +11°C° 0.2 mm 9 mps 714 mmHg 66%
    11:00 +12°C° 0.2 mm 9 mps 714 mmHg 63%
    12:00 +12°C° 0.2 mm 9 mps 714 mmHg 62%
    13:00 +12°C° 0.2 mm 9 mps 715 mmHg 62%
    14:00 +13°C° 0 mm 9 mps 715 mmHg 59%
    15:00 +12°C° 0.1 mm 8 mps 715 mmHg 61%
    16:00 +12°C° 0.1 mm 8 mps 715 mmHg 63%
    17:00 +11°C° 0.1 mm 8 mps 715 mmHg 64%
    18:00 +10°C° 0 mm 7 mps 715 mmHg 71%
    19:00 +9°C° 0 mm 5 mps 716 mmHg 77%
    20:00 +8°C° 0 mm 4 mps 716 mmHg 84%
    21:00 +9°C° 0 mm 3 mps 716 mmHg 86%
    22:00 +9°C° 0 mm 3 mps 716 mmHg 87%
    23:00 +8°C° 0 mm 2 mps 717 mmHg 89%

    Mañana, 23 Abril, Martes

    Tiempo Temperatura Precipitaciones Viento Presión Humedad
    00:00 +8°C° 0 mm 2 mps 717 mmHg 90%
    01:00 +9°C° 0 mm 1 mps 717 mmHg 90%
    02:00 +8°C° 0 mm 1 mps 717 mmHg 91%
    03:00 +8°C° 0 mm 1 mps 717 mmHg 92%
    04:00 +8°C° 0 mm 1 mps 717 mmHg 92%
    05:00 +6°C° 0 mm 0 mps 717 mmHg 92%
    06:00 +9°C° 0 mm 1 mps 718 mmHg 85%
    07:00 +11°C° 0 mm 1 mps 718 mmHg 78%
    08:00 +13°C° 0 mm 2 mps 719 mmHg 71%
    09:00 +14°C° 0 mm 2 mps 719 mmHg 62%
    10:00 +16°C° 0 mm 1 mps 720 mmHg 53%
    11:00 +18°C° 0 mm 1 mps 720 mmHg 43%
    12:00 +19°C° 0 mm 1 mps 720 mmHg 40%
    13:00 +19°C° 0 mm 2 mps 720 mmHg 36%
    14:00 +20°C° 0 mm 2 mps 720 mmHg 32%
    15:00 +20°C° 0 mm 3 mps 719 mmHg 36%
    16:00 +20°C° 0 mm 3 mps 719 mmHg 40%
    17:00 +19°C° 0 mm 4 mps 719 mmHg 43%
    18:00 +18°C° 0 mm 3 mps 719 mmHg 53%
    19:00 +16°C° 0 mm 2 mps 719 mmHg 62%
    20:00 +15°C° 0 mm 1 mps 719 mmHg 72%
    21:00 +14°C° 0 mm 1 mps 719 mmHg 74%
    22:00 +14°C° 0 mm 1 mps 720 mmHg 75%
    23:00 +12°C° 0 mm 0 mps 720 mmHg 77%

    Pasado mañana, 24 Abril, Miércoles

    Tiempo Temperatura Precipitaciones Viento Presión Humedad
    00:00 +12°C° 0 mm 0 mps 720 mmHg 74%
    01:00 +12°C° 0 mm 0 mps 720 mmHg 72%
    02:00 +13°C° 0 mm 1 mps 719 mmHg 69%
    03:00 +13°C° 0 mm 1 mps 719 mmHg 62%
    04:00 +13°C° 0 mm 2 mps 719 mmHg 54%
    05:00 +13°C° 0 mm 2 mps 719 mmHg 47%
    06:00 +15°C° 0 mm 2 mps 720 mmHg 41%
    07:00 +18°C° 0 mm 2 mps 721 mmHg 35%
    08:00 +20°C° 0 mm 2 mps 721 mmHg 29%
    09:00 +21°C° 0 mm 2 mps 721 mmHg 26%
    10:00 +23°C° 0 mm 2 mps 722 mmHg 24%
    11:00 +25°C° 0 mm 2 mps 722 mmHg 21%
    12:00 +25°C° 0 mm 2 mps 721 mmHg 20%
    13:00 +26°C° 0 mm 1 mps 721 mmHg 19%
    14:00 +26°C° 0 mm 1 mps 720 mmHg 18%
    15:00 +26°C° 0 mm 1 mps 720 mmHg 19%
    16:00 +26°C° 0 mm 1 mps 719 mmHg 20%
    17:00 +26°C° 0 mm 1 mps 719 mmHg 21%
    18:00 +24°C° 0 mm 1 mps 719 mmHg 27%
    19:00 +22°C° 0 mm 1 mps 719 mmHg 33%
    20:00 +20°C° 0 mm 1 mps 719 mmHg 40%
    21:00 +18°C° 0 mm 0 mps 719 mmHg 41%
    22:00 +17°C° 0 mm 0 mps 719 mmHg 43%
    23:00 +17°C° 0 mm 0 mps 719 mmHg 44%

    25 Abril, Jueves

    Tiempo Temperatura Precipitaciones Viento Presión Humedad
    00:00 +17°C° 0 mm 0 mps 718 mmHg 43%
    01:00 +18°C° 0 mm 1 mps 718 mmHg 41%
    02:00 +18°C° 0 mm 1 mps 718 mmHg 40%
    03:00 +18°C° 0 mm 1 mps 718 mmHg 39%
    04:00 +16°C° 0 mm 1 mps 718 mmHg 37%
    05:00 +16°C° 0 mm 1 mps 718 mmHg 36%
    06:00 +19°C° 0 mm 1 mps 718 mmHg 32%
    07:00 +21°C° 0 mm 1 mps 719 mmHg 27%
    08:00 +24°C° 0 mm 1 mps 719 mmHg 23%
    09:00 +25°C° 0 mm 1 mps 719 mmHg 21%
    10:00 +26°C° 0 mm 1 mps 719 mmHg 20%
    11:00 +27°C° 0 mm 1 mps 719 mmHg 18%
    12:00 +28°C° 0 mm 1 mps 719 mmHg 18%
    13:00 +28°C° 0 mm 2 mps 719 mmHg 18%
    14:00 +29°C° 0 mm 3 mps 718 mmHg 17%
    15:00 +28°C° 0 mm 3 mps 718 mmHg 21%
    16:00 +28°C° 0 mm 4 mps 717 mmHg 24%
    17:00 +27°C° 0 mm 5 mps 717 mmHg 28%
    18:00 +25°C° 0 mm 4 mps 717 mmHg 34%
    19:00 +22°C° 0 mm 3 mps 717 mmHg 41%
    20:00 +22°C° 0 mm 1 mps 717 mmHg 47%
    21:00 +21°C° 0 mm 1 mps 717 mmHg 49%
    22:00 +20°C° 0 mm 1 mps 717 mmHg 51%
    23:00 +19°C° 0 mm 1 mps 716 mmHg 53%

    26 Abril, Viernes

    Tiempo Temperatura Precipitaciones Viento Presión Humedad
    00:00 +17°C° 0 mm 0 mps 716 mmHg 53%
    01:00 +16°C° 0 mm 0 mps 716 mmHg 54%
    02:00 +16°C° 0 mm 0 mps 715 mmHg 54%
    03:00 +16°C° 0 mm 0 mps 715 mmHg 53%
    04:00 +15°C° 0 mm 0 mps 715 mmHg 53%
    05:00 +15°C° 0 mm 0 mps 715 mmHg 52%
    06:00 +17°C° 0 mm 0 mps 716 mmHg 45%
    07:00 +20°C° 0 mm 0 mps 716 mmHg 38%
    08:00 +22°C° 0 mm 0 mps 716 mmHg 30%
    09:00 +25°C° 0 mm 1 mps 717 mmHg 28%
    10:00 +27°C° 0 mm 2 mps 717 mmHg 25%
    11:00 +28°C° 0 mm 2 mps 717 mmHg 23%
    12:00 +28°C° 0 mm 4 mps 716 mmHg 23%
    13:00 +29°C° 0 mm 5 mps 716 mmHg 24%
    14:00 +29°C° 0 mm 6 mps 715 mmHg 25%
    15:00 +28°C° 0 mm 6 mps 715 mmHg 28%
    16:00 +27°C° 0 mm 6 mps 714 mmHg 31%
    17:00 +25°C° 0 mm 5 mps 714 mmHg 35%
    18:00 +23°C° 0 mm 4 mps 714 mmHg 37%
    19:00 +22°C° 0 mm 3 mps 714 mmHg 39%
    20:00 +21°C° 0 mm 2 mps 714 mmHg 41%
    21:00 +20°C° 0 mm 2 mps 714 mmHg 43%
    22:00 +21°C° 0 mm 1 mps 714 mmHg 45%
    23:00 +20°C° 0 mm 1 mps 714 mmHg 47%

    27 Abril, Sábado

    Tiempo Temperatura Precipitaciones Viento Presión Humedad
    00:00 +20°C° 0 mm 1 mps 713 mmHg 48%
    01:00 +19°C° 0 mm 1 mps 713 mmHg 49%
    02:00 +18°C° 0 mm 1 mps 712 mmHg 50%
    03:00 +16°C° 0 mm 0 mps 712 mmHg 51%
    04:00 +15°C° 0 mm 0 mps 712 mmHg 52%
    05:00 +15°C° 0 mm 0 mps 712 mmHg 54%
    06:00 +16°C° 0 mm 0 mps 713 mmHg 48%
    07:00 +20°C° 0 mm 1 mps 713 mmHg 42%
    08:00 +21°C° 0 mm 1 mps 714 mmHg 36%
    09:00 +23°C° 0 mm 2 mps 714 mmHg 35%
    10:00 +24°C° 0 mm 3 mps 714 mmHg 33%
    11:00 +25°C° 0 mm 4 mps 714 mmHg 32%
    12:00 +26°C° 0 mm 4 mps 713 mmHg 33%
    13:00 +26°C° 0 mm 5 mps 713 mmHg 33%
    14:00 +27°C° 0 mm 5 mps 713 mmHg 33%
    15:00 +26°C° 0 mm 5 mps 713 mmHg 38%
    16:00 +25°C° 0 mm 5 mps 713 mmHg 43%
    17:00 +23°C° 0 mm 5 mps 713 mmHg 48%
    18:00 +22°C° 0 mm 4 mps 713 mmHg 54%
    19:00 +21°C° 0 mm 3 mps 713 mmHg 60%
    20:00 +19°C° 0 mm 2 mps 714 mmHg 66%
    21:00 +19°C° 0 mm 2 mps 714 mmHg 66%
    22:00 +18°C° 0 mm 2 mps 714 mmHg 67%
    23:00 +19°C° 0 mm 1 mps 714 mmHg 67%
    Mostrar más